This demonstration page uses our WeatherBlox Daily Observations layout. Learn more.

Left ArrowRight Arrow

30.21309, -93.2044

Hourly Observations for May 4, 2022

Temp ( °F °C ) Dew Point ( °F °C ) Humidity (%) Winds ( mph kmh ) Pressure ( in mb ) Visibility ( mi km ) Precip ( " mm )
12:15 am 00:15 Mostly Cloudy with Fog 69 20.7 68 20 96 96 Calm 29.99 1016 1 1 0.00 0.00
12:35 am 00:35 Mostly Cloudy with Fog 70 21 69 20.3 96 96 ESE 3 6 29.98 1015 1 1 0.00 0.00
12:55 am 00:55 Cloudy with Fog 70 20.9 68 20.2 96 96 Calm 29.98 1015 1 1 0.00 0.00
1:15 am 01:15 Cloudy with Mist and Fog 70 20.9 68 20.2 96 96 ESE 5 7 29.98 1015 1 2 0.00 0.00
1:35 am 01:35 Cloudy with Mist and Fog 71 21.4 69 20.7 96 96 ESE 3 6 29.97 1015 3 4 0.00 0.00
1:55 am 01:55 Cloudy with Fog 70 21.3 69 20.6 96 96 SE 3 6 29.97 1015 1 1 0.00 0.00
2:15 am 02:15 Cloudy with Fog 70 20.9 68 20.2 96 96 Calm 29.97 1015 0 0 0.00 0.00
2:35 am 02:35 Cloudy with Fog 70 21.3 69 20.6 96 96 SE 3 6 29.96 1015 0 0 0.00 0.00
2:55 am 02:55 Cloudy with Fog 69 20.6 68 19.9 96 96 Calm 29.96 1015 0 0 0.00 0.00
3:15 am 03:15 Cloudy with Fog 71 21.5 69 20.8 96 96 ESE 3 6 29.96 1015 0 0 0.00 0.00
3:35 am 03:35 Cloudy with Fog 71 21.5 70 20.9 96 96 E 3 6 29.96 1015 1 1 0.00 0.00
3:55 am 03:55 Mostly Cloudy with Mist and Fog 71 21.4 69 20.7 96 96 ESE 3 6 29.96 1015 2 3 0.00 0.00
4:15 am 04:15 Mostly Cloudy with Mist and Fog 70 21 69 20.3 96 96 SE 3 6 29.96 1015 1 2 0.00 0.00
4:35 am 04:35 Cloudy with Fog 70 21 69 20.4 96 96 ESE 3 6 29.96 1015 1 1 0.00 0.00
4:55 am 04:55 Mostly Cloudy with Mist and Fog 70 21.2 69 20.6 96 96 ESE 7 11 29.96 1015 1 2 0.00 0.00
5:15 am 05:15 Clear with Mist and Fog 72 22.2 71 21.6 96 96 ESE 7 11 29.96 1015 4 6 0.00 0.00
5:35 am 05:35 Clear with Mist and Fog 72 22.1 71 21.5 96 96 SE 7 11 29.96 1015 4 6 0.00 0.00
6:00 am 06:00 Mostly Clear with Mist and Fog 72 22 72 22 100 100 SE 6 9 29.97 1015 6 10 0.00 0.00
6:50 am 06:50 Partly Cloudy with Mist and Fog 72 22 70 21 94 94 Calm 29.98 1015 3 5 0.00 0.00
7:53 am 07:53 Mostly Cloudy with Mist and Fog 73 23 72 22 94 94 ESE 6 9 30.00 1016 3 5 0.00 0.00
8:55 am 08:55 Mostly Cloudy 79 26 73 23 84 84 SSE 12 19 30.01 1016 10 16 0.00 0.00
9:25 am 09:25 Mostly Cloudy 79 26 72 22 79 79 SSE 13 20 30.02 1017 10 16 0.00 0.00
9:50 am 09:50 Mostly Cloudy 81 27 72 22 74 74 SSE 13 20 30.02 1017 10 16 0.00 0.00
10:45 am 10:45 Mostly Cloudy 82 28 72 22 70 70 SSE 13 20 30.02 1017 10 16 0.00 0.00
11:45 am 11:45 Mostly Cloudy 84 29 72 22 66 66 SSE 15 24 30.02 1017 10 16 0.00 0.00
12:50 pm 12:50 Mostly Cloudy 86 30 72 22 62 62 SSE 17 28 30.01 1016 10 16 0.00 0.00
1:50 pm 13:50 Mostly Cloudy 86 30 70 21 59 59 SSE 14 22 30.00 1016 10 16 0.00 0.00
2:50 pm 14:50 Mostly Cloudy 88 31 70 21 55 55 SSE 17 28 29.99 1016 10 16 0.00 0.00
3:50 pm 15:50 Mostly Cloudy 84 29 70 21 62 62 SSE 17 28 29.97 1015 10 16 0.00 0.00
4:50 pm 16:50 Mostly Cloudy 86 30 70 21 59 59 S 16 26 29.95 1014 10 16 0.00 0.00
5:50 pm 17:50 Mostly Cloudy 84 29 70 21 62 62 SSE 17 28 29.95 1014 10 16 0.00 0.00
6:45 pm 18:45 Mostly Cloudy 82 28 70 21 66 66 S 12 19 29.96 1015 10 16 0.00 0.00
7:45 pm 19:45 Mostly Sunny 79 26 68 20 70 70 S 7 11 29.95 1014 10 16 0.00 0.00
8:45 pm 20:45 Mostly Clear 72 22 66 19 83 83 Calm 29.98 1015 10 16 0.00 0.00
9:50 pm 21:50 Mostly Clear 72 22 70 21 94 94 Calm 29.97 1015 10 16 0.00 0.00
10:15 pm 22:15 Clear 72 22 69 20.5 91 91 SSE 8 13 29.97 1015 10 16 0.00 0.00
10:35 pm 22:35 Partly Cloudy 72 22.1 69 20.6 91 91 SE 8 13 29.96 1015 10 16 0.00 0.00
10:55 pm 22:55 Clear 73 22.5 70 20.9 91 91 SE 7 11 29.95 1014 10 16 0.00 0.00
11:15 pm 23:15 Clear 71 21.9 69 20.6 92 92 SE 7 11 29.95 1014 10 16 0.00 0.00
11:35 pm 23:35 Clear 72 22.3 70 21 92 92 SE 8 13 29.94 1014 10 16 0.00 0.00
11:55 pm 23:55 Clear 72 22.3 70 21 92 92 SSE 8 13 29.94 1014 7 11 0.00 0.00

Powered by AerisWeather